STARLINK-11522, 63141

Orbit data source: Space-Track

STARLINK-11522, 63141 is a payload satellite owned by SpaceX/Seattle (US) in LEO that was launched on Mon, 03 Mar 2025 UTC via an FALCON 9 launch vehicle from the Air Force Eastern Test Range (AFETR). Payload-class satellites include a variety of spacecraft equipped with specific instruments for various scientific and technological missions. These include communications satellites like Starlink; space stations such as the ISS; scientific satellites like the Hubble; Earth observation satellites from companies like Planet Labs, Umbra, and HawkEye 360; GPS; miniature CubeSats for education and research; and military/defense satellites.

Loading next visibility...
Identifier
63141, 2025-043K
Orbit
LEO
Last TLE update
19 hours ago
Origin
Manufacturer
SpaceX/Seattle
Mission
Operational Commercial Communications
Bus & Motor
STARLINK V2M, Unknown motor
Mass
730 kg wet, ~700 kg dry
Launch date (UTC)
2025-03-03 (4 months ago)
Launch vehicle
FALCON 9
Launch site
Air Force Eastern Test Range (AFETR)
Object type
Payload
Rocket body
Debris
Shape & HBR
Box + 2 Pan, 29 m
Radar Cross Section
36.964 m², Large (>1 m²)

Expand to show TLE details & history

TLE from 19 hours ago
0 STARLINK-11522
1 63141U 25043K   25181.76931728  .00163436  00000-0  12449-2 0  9994
2 63141  43.0035 329.0275 0004036 272.6992  87.3414 15.70974974 19673
Epoch: 2025-06-30T18:27Z
TLE epoch observation values (Epoch: 2025-06-30T18:27:49.012Z)
Latitude
-0.00002°
Longitude
132.99889°
Altitude
355.756 km
Speed
7.698 km/s
True Right ascension
21h 56m 06s
True Declination
0° 00' 00"
Sunlit
Object was in full shadow at epoch
Visualization orbit readout
Latitude
-4.84568°
Longitude
-46.61644°
Altitude
355.953 km
Speed
7.697 km/s
Apparent Right ascension
11h 19m 03s
Apparent Declination
-23° 37' 34"
Sunlit
Object is in daylight
Visualization observer readout
Local Sidereal Time
01:12:51
Azimuth
64.358° ENE
Elevation
-61.044°
Doppler factor
1
Orbital elements
Apogee altitude
360.809 km
Perigee altitude
355.372 km
Semi-major axis
6,736.227 km
Eccentricity
0.0004
Inclination
43.0035°
RAAN
329.0275°
Arg. of periapsis
272.6992°
True anomaly
Unknown
Mean anomaly
87.3414°
Eccentric anomaly
Unknown
Mean motion
3.92571 °/min
Orbital period
91.7 mins
BSTAR
0.0012449
Loading maneuver chart data...
Loading SW <> Apogee altitude chart data...
Loading historical data...
Loading historical data...
Loading historical data...
Loading historical data...
Loading historical data...
Loading historical data...
Loading historical data...

STARLINK-11522 Visibility forecast

Observer location: undefined°, undefined°

Span
Click to sort rows by Start time (UTC) header in descending order
Start Az.
Max El. time (UTC)
Max El. Az.
Max El.
End time (UTC)
End Az.
4 mins2025-07-01 14:34:53.443Z265.715° W2025-07-01 14:36:53.443Z346.531° N42.373°2025-07-01 14:38:53.443Z66.024° ENE
4 mins2025-07-01 16:11:53.443Z305.275° NW2025-07-01 16:12:53.443Z343.386° N33.846°2025-07-01 16:15:53.443Z77.106° E
4 mins2025-07-01 17:47:53.443Z283.714° WNW2025-07-01 17:49:53.443Z129.212° SE39.876°2025-07-01 17:51:53.443Z114.598° SE
|